Location: Newark
(55.7083°N, 13.1992°E)
Time: 15:14:58
(UTC+00:00)

N. Korean satellite - Pass Details

Date: 26 January 2020
Orbit: 456 x 506 km, 97.2° (Epoch: 17 February)

Event Time Altitude Azimuth Distance (km) Brightness Sun altitude
Rises 03:41:11 0° 31° (NNE) 2,537 10.7 -29.3°
Reaches altitude 10° 03:44:38 10° 67° (ENE) 1,664 10.2 -28.8°
Maximum altitude 03:45:47 11° 86° (E) 1,589 10.1 -28.6°
Drops below altitude 10° 03:46:57 10° 105° (ESE) 1,669 10.1 -28.5°
Sets 03:50:24 0° 141° (SE) 2,556 10.6 -28.0°
